COSMOS 1322

导读 | 豆包AI

COSMOS 1322是独联体(CIS)1981年11月28日08:00发射的人造卫星,延续苏联宇宙号卫星系列,多服务于军事侦察、空间科学观测任务。作为冷战时期航天活动代表,它承载战略情报获取与太空技术验证使命,是独联体早期太空部署的重要组成,反映当时航天发展水平,对空间技术演进有标志性意义,目前已完成设计任务,不再在轨运行。

基本信息
目录编号:
12977
目录名称:
COSMOS 1322
国际标识:
1981-116C
轨道中心:
EARTH
卫星名称:
COSMOS 1322
卫星全名:
--
卫星状态:
在轨 (已飞行16175 天)
发射日期:
1981-11-28 UTC
国别 :
俄罗斯(独联体) (CIS)
星等 :
--
轨道信息
数据来源 国际轨道数据
星历时间: 2026-03-12T08:06:42+0800
11小时前
查看轨道信息
半长轴: 7932.888km
偏心率: 0.0092792
轨道倾角: 73.983°
近地点辐角 25.983°
升交点赤经 157.533°
平近点角 146.688°
近地点: 1481.14km
远地点: 1628.362km
周期: 117.194分钟
每日圈数: 12.287281
详细信息
使用方式:
暂无
2D轨道图
3D轨道图
轨道高度分析图
轨道倾角分析图
轨道综合分析图
查看轨道综合分析图